User: anonymous   Login
Location: Unspecified
(0.0000°N, 0.0000°E)
Time: 18:06:47
(UTC+00:00)
Language:

STARLINK-5625 - Orbit

View from above orbital plane
View from above orbital plane
View from above satellite
View from above satellite

Ground track
Ground track

The orbit is defined by the following mean orbital elements,

1 55368U          26145.17821567 +.00000000 +00000-0 +72199-5 0 00008
2 55368  43.0049 216.5304 0001959 276.9267  83.1361 15.27576379    07
Epoch (UTC): 25 May 2026 04:16:37
Eccentricity: 0.0001959
inclination: 43.0049°
perigee height: 482 km
apogee height: 484 km
right ascension of ascending node: 216.5304°
argument of perigee: 276.9267°
revolutions per day: 15.27576379
mean anomaly at epoch: 83.1361°

The dashed part of the orbit path shows where the satellite is in the earth's shadow,  

DLR